GFSNGP_850_temp_276.txt.gz
Temp
13 15 16 17 17 17 17 18 17 18 19 21 21 19 17 15 14 12 11 11 10 9 8 8 7 6 5 4 3 3 2 2 3 4 4 4 4 4 4 3 3 3 3 2
9 12 14 15 16 17 17 18 18 18 19 22 21 18 15 14 13 12 12 11 10 9 8 7 6 6 5 4 3 2 2 2 4 4 4 4 3 3 3 3 3 2 2 2
8 13 13 12 14 16 17 18 18 17 19 21 19 17 15 14 12 12 11 11 10 10 9 8 6 6 5 3 3 2 2 2 3 3 3 3 3 3 3 3 2 2 2 1
6 10 8 14 17 17 17 17 18 18 19 20 19 18 16 14 12 11 11 11 10 10 9 8 6 5 4 3 3 2 1 2 3 3 3 3 3 2 2 2 1 1 1 1
5 8 11 15 16 16 16 17 18 18 19 19 19 19 17 14 12 12 11 10 10 9 8 7 6 5 4 3 2 2 2 2 3 3 3 2 2 2 2 1 1 1 1 1
6 5 7 13 16 16 17 15 18 19 18 18 19 18 19 16 13 11 10 10 9 8 8 7 6 5 4 3 3 2 2 3 3 3 2 2 2 2 2 1 1 -0 0 1
6 6 9 13 14 15 13 15 18 18 17 17 18 18 18 17 14 12 11 9 8 8 8 8 5 6 5 5 5 3 3 3 3 2 2 2 2 2 1 1 0 0 0 0
5 6 6 13 13 12 9 10 8 11 15 16 16 16 15 15 14 11 10 9 8 8 7 7 9 8 5 6 4 3 3 3 2 1 1 2 1 1 1 0 0 0 -0 -0
-0 6 11 10 8 7 5 6 5 7 7 9 12 13 13 13 11 10 10 8 7 7 6 5 7 8 7 5 3 4 3 2 1 1 1 1 1 1 0 -0 -1 -0 -1 -1
0 6 5 3 3 6 4 4 4 5 6 8 10 12 12 12 10 9 9 7 7 7 6 5 7 7 7 5 5 4 3 0 0 1 1 1 -1 -1 -1 -1 -1 -1 -2 -2
1 2 2 3 5 4 2 2 3 4 5 5 6 9 11 11 10 9 8 7 7 7 5 5 7 6 6 5 4 3 1 -0 1 1 -0 -0 -1 -1 -1 0 -0 -1 -1 -1
1 2 2 2 2 2 1 2 2 4 5 5 5 6 9 10 10 9 8 7 7 7 5 5 5 5 4 5 5 3 1 -1 -1 1 -1 -1 1 1 1 0 -0 -0 -0 -1
0 -1 -1 -0 -0 0 0 1 2 4 3 4 4 6 8 10 9 8 7 6 7 6 5 4 5 5 4 5 5 4 2 -0 1 0 -0 0 0 1 1 0 -0 -1 -1 -1
-1 -1 -1 -1 -0 -0 1 1 2 2 3 3 4 6 7 9 9 8 7 7 6 5 4 4 4 5 6 5 4 4 0 2 2 0 0 0 -0 -0 0 -0 -1 -1 -2 -2
-2 -2 -2 -1 -1 -1 -0 0 1 2 3 4 4 5 7 8 8 7 7 6 6 5 3 3 4 5 6 5 5 2 1 2 0 1 1 0 -0 -1 -2 -2 -2 -2 -2 -2
-2 -2 -2 -2 -1 -1 0 0 2 3 3 3 4 5 6 7 7 6 6 5 5 4 3 3 4 7 7 5 4 1 2 2 1 1 1 0 -0 -0 -1 -2 -2 -2 -3 -3
-1 -1 -1 -1 -2 -1 -1 -0 1 2 2 3 4 5 6 6 6 6 5 4 4 3 3 3 4 6 6 5 5 3 3 2 2 1 1 0 -0 -1 -1 -1 -2 -2 -3 -3
-2 -2 -2 -2 -2 -1 -1 -1 -0 1 2 3 4 4 5 5 5 5 4 3 3 2 2 2 5 7 6 5 4 3 3 2 1 1 0 0 -0 -1 -1 -2 -2 -2 -3 -3
-3 -3 -2 -2 -2 -2 -1 -1 0 1 2 3 3 4 4 4 4 4 3 2 2 2 1 1 5 7 5 5 3 3 3 2 0 0 0 -0 -0 -1 -1 -2 -2 -3 -3 -3
-1 -2 -2 -2 -2 -1 -1 -1 0 1 2 3 3 3 4 3 3 2 2 2 2 2 2 4 6 6 5 4 3 3 2 2 1 1 0 -0 -0 -1 -1 -2 -2 -3 -3 -3
-0 -1 -1 -2 -2 -1 -1 -0 1 2 2 3 3 3 4 3 3 2 1 1 1 1 3 5 6 5 5 4 3 3 2 1 1 1 0 -0 -1 -1 -1 -2 -2 -3 -3 -3
1 0 -0 -1 -1 -1 -1 0 1 1 2 2 2 3 3 2 2 2 2 2 1 1 3 4 5 5 5 3 2 2 2 1 1 1 0 -0 -1 -1 -1 -2 -2 -3 -3 -3
3 2 1 -0 -1 -1 -0 0 1 1 2 2 2 3 2 1 1 -0 -1 -1 1 1 3 4 5 5 4 2 2 2 1 1 1 0 0 -0 -1 -1 -1 -2 -2 -3 -3 -4
3 2 1 0 -0 -0 0 1 2 2 2 2 2 2 1 -1 -1 -0 0 1 1 3 3 5 5 4 3 2 2 2 1 1 0 0 -0 -1 -1 -1 -2 -2 -3 -3 -3 -4
2 1 1 1 1 1 2 2 3 1 1 0 -0 0 -0 -0 1 -0 -0 1 1 2 4 5 5 3 2 3 2 2 1 1 0 -0 -0 -1 -1 -2 -2 -2 -3 -3 -4 -4
3 3 3 3 3 3 3 2 1 1 -0 -1 -1 -1 -1 -1 -1 0 1 2 1 3 5 5 4 3 3 2 2 1 1 0 -0 -0 -1 -1 -1 -2 -2 -3 -3 -3 -4 -4
3 2 2 2 2 2 2 1 1 1 -0 -1 -1 -2 -1 -1 -0 0 1 1 2 5 5 4 3 3 3 2 1 1 0 0 -0 -1 -1 -1 -2 -2 -2 -3 -3 -4 -4 -4

GFSNGP_850_temp_279.txt.gz
Temp
13 15 17 17 17 19 18 19 18 19 20 22 23 23 23 23 22 20 18 16 14 13 11 10 9 8 8 7 6 5 5 4 3 3 2 3 4 4 4 3 2 2 2 2
9 12 13 14 16 17 19 19 20 20 20 22 23 23 23 22 20 19 18 16 14 13 11 10 9 8 8 7 6 5 5 4 3 2 2 3 3 3 4 3 2 1 1 0
6 10 12 12 14 16 18 19 19 19 20 22 22 22 21 21 19 19 17 15 14 13 12 10 9 8 7 6 5 5 4 4 2 2 2 2 2 3 2 1 1 1 1 0
6 8 6 12 16 17 17 18 19 20 20 21 21 22 21 20 18 17 16 15 14 13 12 10 9 8 7 6 5 4 4 3 2 2 1 1 1 1 1 1 0 1 1 -0
5 7 9 12 15 16 17 17 19 19 20 21 21 21 20 20 18 17 15 14 14 13 12 10 9 8 7 6 5 4 4 3 2 2 1 1 1 0 0 -0 -0 0 -0 -0
5 6 7 10 14 15 16 15 15 15 18 20 20 19 20 20 19 17 15 14 14 13 11 10 9 8 6 5 5 4 4 3 2 2 1 1 1 0 -0 -0 -0 -1 0 1
5 5 8 12 14 15 12 11 10 11 12 13 18 20 19 20 19 16 14 13 13 12 11 10 9 7 6 5 5 4 3 2 2 2 1 1 0 -0 -0 -0 -1 -1 -1 0
6 5 5 12 12 11 7 8 8 9 9 10 12 15 16 17 18 15 13 12 12 11 11 10 8 7 6 5 5 4 3 2 1 1 1 1 -0 -0 -1 -1 -1 -1 -2 -2
0 4 10 4 6 6 7 6 6 6 7 8 9 10 13 14 16 15 13 13 12 11 10 9 8 6 5 5 4 3 2 2 1 1 1 0 -0 -1 -1 -1 -1 -1 -1 -2
3 5 6 5 3 4 4 5 4 4 5 6 8 8 9 12 14 14 14 13 11 10 10 9 7 6 5 5 4 3 2 2 1 1 0 -0 -0 -1 -1 -1 -1 -1 -1 -1
3 4 4 4 4 4 1 3 3 3 3 5 7 7 8 9 12 13 13 13 11 10 10 8 6 6 6 5 4 3 2 1 1 0 0 -0 -0 -0 -0 -1 -1 -1 -2 -2
3 3 3 3 3 3 2 2 2 2 2 4 6 6 6 8 9 12 12 12 11 10 9 8 6 6 6 4 5 3 2 1 0 -0 -0 -0 -1 -1 -1 -0 -0 0 1 1
2 1 1 1 1 1 1 1 2 2 2 4 5 5 6 7 8 9 11 11 10 10 9 7 6 6 5 4 4 4 4 2 0 1 -0 -1 -1 1 1 0 0 0 0 1
0 0 1 1 1 1 1 1 2 2 2 3 3 4 6 6 7 9 11 10 9 9 9 7 6 7 5 4 4 4 4 4 1 1 -0 -1 -1 1 1 1 0 0 0 0
-0 -0 0 0 0 1 1 1 1 1 2 2 3 4 5 6 7 8 10 9 8 8 9 7 6 6 4 3 5 4 4 2 1 0 -0 -1 -1 -0 1 0 0 0 -0 -1
-0 -0 -0 -0 0 0 0 0 1 1 1 2 3 4 5 5 6 8 9 9 8 8 8 7 6 5 3 3 4 4 4 3 1 0 -0 -1 -1 -1 -2 -2 -1 0 -1 -1
0 1 0 -0 0 0 0 0 1 1 1 1 2 4 4 5 6 7 9 8 8 7 7 6 5 4 2 3 4 4 3 1 0 0 0 0 -0 -2 -2 -2 -1 -1 -1 -1
-0 -0 -0 -0 0 0 0 -0 -0 0 0 1 1 2 3 4 5 6 8 7 7 7 6 5 4 3 2 2 3 5 4 2 0 1 0 1 -0 -2 -1 -1 -1 -1 -0 -1
-3 -3 0 0 -0 0 0 0 0 0 0 0 1 1 2 2 4 4 6 7 6 6 5 4 4 2 1 1 3 5 4 2 0 1 1 1 -0 -1 -0 -0 -0 -0 -0 -1
-3 -4 -4 1 0 -0 -0 -0 -1 -1 -0 -0 0 1 1 2 3 4 4 5 5 5 4 4 3 1 1 2 3 4 4 2 2 2 1 2 1 0 0 0 -0 -0 -1 -1
-4 -3 -2 -1 1 0 -1 -0 -1 -1 -0 -0 0 1 1 2 3 3 4 4 5 4 3 3 2 1 0 1 1 4 3 2 2 2 2 2 1 1 0 0 -0 -1 -1 -2
-3 -2 -0 1 1 0 -1 -1 -1 -1 -1 -0 0 1 2 2 3 3 3 4 4 3 2 2 1 0 0 1 2 3 3 2 3 2 2 2 1 1 0 -0 -0 -1 -2 -2
-3 -1 2 2 1 1 0 -0 -0 -0 0 -0 -0 1 2 2 2 2 2 2 2 2 2 1 -0 -1 1 1 1 3 3 3 3 3 2 2 1 1 0 -0 -1 -1 -2 -2
-2 0 4 3 2 1 1 1 0 -0 0 0 1 1 2 2 1 1 2 2 1 1 1 0 -1 -0 0 -0 2 3 3 3 3 2 2 2 1 0 -0 -0 -1 -1 -2 -2
-1 2 4 3 2 2 1 2 1 1 1 1 2 2 2 1 1 1 0 -0 1 1 -1 -1 -1 -1 -1 1 3 4 4 3 3 2 2 1 1 0 -0 -1 -1 -2 -2 -2
-0 3 3 3 3 2 2 2 2 2 2 2 3 3 2 1 0 0 -0 -1 -0 -0 -1 -1 -1 -2 -0 2 4 4 3 3 2 1 1 1 0 -0 -1 -1 -1 -2 -2 -3
0 0 3 3 3 3 3 3 3 3 3 3 3 1 1 0 -0 -0 -1 -1 -1 -2 -1 -1 -2 -1 1 3 4 3 3 2 2 1 1 0 -0 -1 -1 -1 -2 -2 -3 -3

GFSNGP_850_temp_282.txt.gz
Temp
9 11 13 13 13 15 15 16 17 18 19 21 22 22 23 24 23 20 18 16 15 14 13 11 10 8 7 6 6 5 5 5 6 5 5 5 5 5 4 3 3 3 4 4
6 8 9 11 13 14 15 15 17 18 19 22 23 23 22 23 22 20 18 17 16 14 13 11 10 8 7 6 5 5 4 4 4 4 4 4 4 4 3 3 3 3 3 4
4 7 8 7 10 13 15 16 17 16 19 21 21 22 22 22 21 20 19 17 16 14 13 11 10 9 8 7 6 5 5 4 4 4 4 4 4 4 4 3 3 3 3 3
4 6 4 9 12 14 14 16 17 18 19 20 21 21 21 21 18 18 20 18 16 15 13 12 10 9 8 7 6 5 5 4 4 3 4 4 4 4 3 3 3 3 2 3
2 4 6 9 11 13 15 14 14 13 14 14 15 17 20 20 21 20 19 19 16 15 13 12 10 9 8 7 6 5 4 4 4 4 4 4 3 3 3 3 3 2 2 1
3 3 4 8 11 12 14 10 9 10 11 11 13 15 17 19 20 18 18 17 16 14 13 11 10 9 8 6 6 5 4 4 4 3 4 4 3 3 3 2 2 2 1 0
4 3 5 9 11 11 8 9 8 6 8 8 10 11 12 16 18 19 16 16 15 14 13 11 10 9 7 6 5 5 4 4 3 3 4 4 3 2 2 1 1 1 1 1
2 2 3 9 9 5 4 6 5 5 4 5 6 8 9 12 15 16 15 15 15 14 13 11 10 9 7 6 5 5 4 3 3 3 3 2 2 2 1 1 1 0 0 0
2 4 6 4 4 4 2 4 3 4 3 2 4 5 8 9 11 14 15 14 14 14 12 11 10 9 7 6 5 4 3 3 3 2 2 1 2 1 1 1 1 0 -0 0
3 4 5 5 3 4 4 2 0 3 3 1 2 3 5 8 8 11 14 14 14 13 12 11 10 9 7 6 5 4 3 3 2 2 1 1 1 1 1 1 0 -0 -1 -0
2 3 3 4 4 4 4 3 2 3 3 2 1 2 3 6 7 8 10 13 14 13 12 11 10 8 7 6 5 4 3 2 2 2 1 1 1 0 1 0 0 0 -1 -0
1 2 2 3 2 2 2 2 3 2 2 3 0 1 2 5 6 7 8 10 13 13 12 11 10 8 7 6 4 4 3 2 2 1 1 1 0 0 -0 0 -0 -0 -0 1
2 1 1 1 1 1 2 2 2 2 2 2 2 1 2 3 4 6 7 9 11 12 12 11 9 8 6 5 4 3 3 2 2 2 1 1 1 1 1 -0 -0 -1 -0 1
1 1 1 1 1 1 1 1 1 2 2 2 2 2 1 2 3 5 7 8 10 12 11 10 9 7 6 5 4 4 3 2 3 3 2 1 1 1 1 1 0 -0 -0 0
-0 -0 -0 0 0 1 1 1 1 1 1 2 2 2 1 1 3 5 6 7 8 10 10 10 8 7 6 5 3 3 2 2 3 3 1 1 2 1 1 1 1 1 1 0
0 0 0 1 1 1 1 1 1 1 1 2 1 1 1 1 2 4 5 6 7 9 9 9 8 7 7 5 3 3 2 2 2 2 1 1 2 2 1 1 1 1 1 1
0 0 -0 -0 -1 -1 -0 1 1 1 1 1 1 1 1 1 2 3 5 6 6 9 9 9 8 7 7 5 3 2 3 2 3 2 1 2 2 2 2 1 1 1 1 1
-1 -1 -2 -2 -2 -2 -2 -2 -1 0 1 1 1 1 1 1 2 3 4 5 5 8 8 8 8 7 6 5 3 2 2 3 2 2 2 1 1 2 1 1 1 1 0 0
-3 -3 -3 -4 -4 -4 -4 -3 -3 -1 0 0 0 1 1 1 1 2 2 4 5 5 8 7 7 7 6 4 2 1 3 2 1 1 1 1 0 0 -0 -0 1 1 1 0
-3 -4 -5 -6 -5 -5 -4 -4 -3 -2 0 0 0 -0 -0 0 0 1 2 2 4 4 7 7 6 6 5 3 2 2 2 2 1 0 1 1 1 -0 -0 0 1 2 1 -0
-3 -5 -5 -5 -5 -5 -4 -4 -4 -3 0 1 1 1 0 0 0 0 1 1 4 5 5 7 6 5 4 3 2 1 1 1 1 0 2 1 1 1 0 0 1 1 0 -0
-3 -3 -3 -4 -4 -3 -3 -3 -2 -3 0 0 -0 -0 -0 -0 -0 0 1 1 3 4 4 6 5 5 3 2 1 1 1 2 1 1 1 1 1 1 2 1 1 1 0 -1
-3 -3 -5 -4 -4 -3 -1 -2 -2 0 1 0 -0 -1 -1 -1 -1 -1 0 2 3 3 4 5 5 4 3 2 1 0 0 0 2 1 1 2 2 2 2 2 1 1 0 -0
-4 -4 -4 -3 -3 -2 -0 1 1 1 0 -0 -1 -1 -1 -1 -1 -0 0 2 4 3 3 4 4 3 2 1 0 -0 -0 0 1 1 2 2 2 2 2 2 1 1 -0 -1
-4 -4 -4 -2 1 0 1 2 1 0 -0 -1 -0 -1 -1 -1 -1 0 1 2 3 3 3 3 3 2 1 0 -1 -1 -1 -1 -1 1 2 3 2 2 2 1 1 0 -0 -1
-4 -4 -2 -0 2 2 2 2 2 1 1 0 -0 0 -0 -1 -0 1 1 1 2 2 2 2 2 1 0 -1 -1 -1 -1 -2 0 1 2 2 2 2 1 1 0 -0 -0 -1
-3 -2 -1 1 4 3 2 2 2 2 1 1 0 0 1 1 1 1 1 1 1 1 1 1 1 0 -0 -1 -1 -1 -1 -1 0 2 2 2 2 2 1 1 0 -0 -1 -1

GFSNGP_850_temp_285.txt.gz
Temp
6 7 8 8 8 8 9 11 10 12 13 15 16 17 19 21 21 19 16 14 13 11 9 9 10 10 9 8 7 6 6 6 6 6 5 6 5 5 5 5 5 6 6 5
3 6 6 6 7 8 9 10 12 13 13 15 16 17 17 19 20 18 15 16 14 12 10 9 10 9 9 7 7 6 6 6 5 5 5 5 5 5 4 4 4 5 5 5
2 5 5 3 5 7 9 10 11 11 13 13 11 12 13 15 18 18 17 16 14 13 11 9 9 9 9 7 7 6 6 6 5 5 5 5 4 4 4 4 4 5 5 4
1 2 -4 5 8 9 10 10 11 11 11 9 9 10 13 11 10 13 18 15 14 15 12 10 9 9 8 8 7 5 5 5 4 4 4 4 3 3 4 3 3 5 4 4
-3 1 3 4 6 6 7 7 9 9 8 7 7 10 11 8 8 9 15 17 15 15 12 11 10 9 8 8 7 6 5 5 4 4 4 3 3 3 3 3 3 4 3 3
-1 -1 -1 5 7 8 8 5 5 5 4 4 5 3 5 4 5 9 14 18 17 14 12 10 9 9 9 8 7 6 5 4 4 4 4 3 3 3 3 3 3 3 3 3
0 -0 2 5 7 6 5 2 0 3 3 2 2 2 2 3 3 7 10 16 15 14 12 11 10 9 8 8 6 6 5 4 4 3 4 4 3 3 3 2 2 2 3 3
2 0 0 1 3 1 1 -1 -0 0 2 2 2 2 3 1 2 5 8 12 15 14 11 10 10 9 8 8 7 6 5 4 4 3 3 3 2 2 2 2 2 2 2 2
-1 -1 2 2 2 2 0 2 2 1 1 2 2 2 2 2 2 2 5 8 11 13 11 10 10 9 8 7 7 6 5 5 4 3 3 3 2 2 1 1 2 2 2 3
-1 1 1 1 2 2 2 3 3 2 3 3 2 2 2 2 2 1 4 5 7 7 10 10 9 9 9 8 7 6 6 5 4 3 2 2 2 2 2 2 2 2 2 2
-1 -0 1 1 2 1 2 2 2 2 2 2 2 2 2 2 2 -0 1 3 4 7 10 10 9 8 7 7 7 6 5 5 4 3 2 2 2 1 2 2 3 4 3 3
-2 -0 -0 0 1 1 1 1 1 1 1 1 2 2 2 2 2 0 1 2 3 6 8 10 9 8 7 7 6 6 5 5 4 3 2 1 1 1 1 2 2 2 2 3
-1 -0 -0 -0 0 0 1 1 1 1 1 1 1 1 2 2 2 -0 0 1 2 5 7 9 10 9 8 7 6 6 6 5 3 3 2 2 1 2 1 0 -0 0 0 1
-1 -1 -1 -1 -0 0 -0 0 0 0 0 0 0 1 1 1 1 1 0 1 2 3 5 7 10 9 8 7 6 5 5 6 4 3 2 2 2 2 1 2 0 -1 -1 -0
-2 -1 -1 -1 -1 -1 -0 -0 -0 -0 0 0 0 0 1 1 1 1 2 2 2 3 4 7 10 9 8 7 6 5 5 4 4 3 3 2 2 1 1 1 1 0 -0 -1
-1 -1 -1 -1 -1 -1 -0 -1 -1 -0 -0 -0 0 1 1 0 1 1 1 2 2 3 4 5 8 9 8 7 6 4 4 5 4 3 2 2 2 1 1 1 1 1 1 1
-1 -1 -1 -1 -1 -1 -1 -1 -1 -1 -1 -1 -1 -1 0 1 0 1 0 1 2 3 3 5 6 8 7 7 6 5 4 3 3 2 3 3 3 2 1 1 1 1 1 1
-1 -1 -1 -2 -2 -2 -2 -2 -2 -3 -3 -3 -3 -2 -1 -0 0 0 1 1 2 2 4 6 5 8 7 6 5 4 4 4 3 3 3 2 2 2 1 1 1 1 1 1
-2 -2 -2 -2 -2 -3 -3 -3 -4 -4 -4 -4 -4 -3 -3 -2 -0 0 1 1 1 2 6 5 5 7 7 6 5 4 4 4 3 2 3 2 2 1 1 1 1 1 1 1
-2 -2 -2 -3 -3 -3 -3 -4 -4 -5 -5 -5 -5 -4 -4 -3 -1 0 0 1 1 2 4 5 4 5 7 6 5 5 4 4 3 2 2 2 2 1 1 1 2 1 1 1
-2 -3 -3 -3 -4 -4 -4 -5 -5 -5 -5 -5 -5 -4 -4 -3 -2 -0 -0 0 1 2 5 5 3 3 6 6 5 5 4 3 2 2 2 3 2 -1 0 1 1 2 1 1
-3 -3 -4 -4 -5 -5 -5 -5 -5 -5 -5 -5 -5 -5 -4 -3 -2 -0 0 0 1 2 5 4 3 3 5 6 4 4 4 3 2 2 2 1 2 -1 -0 1 0 2 1 1
-4 -4 -5 -5 -5 -5 -5 -5 -4 -4 -4 -4 -4 -4 -4 -4 -2 -1 -1 0 1 1 3 3 3 3 4 5 5 4 3 2 2 2 2 2 1 -1 -0 0 0 2 1 1
-5 -5 -5 -5 -5 -5 -4 -3 -3 -3 -3 -3 -3 -3 -3 -3 -2 -0 -0 -0 0 0 1 2 3 3 4 5 4 3 2 2 2 1 1 1 -0 -2 -0 -0 1 1 1 0
-5 -6 -6 -5 -4 -3 -2 -1 -0 -1 -1 -1 -2 -2 -3 -2 -1 -1 -0 -0 -0 0 2 2 3 3 3 4 4 3 2 2 1 1 1 1 -1 -2 -1 0 1 1 0 0
-6 -6 -5 -4 -4 -2 -2 -1 -1 -1 -1 -2 -1 -1 -1 -1 -0 -0 -1 -0 -0 0 1 2 3 2 2 3 3 2 1 1 1 1 1 -0 -1 -1 -1 0 1 1 0 0
-5 -5 -5 -4 -3 -3 -1 1 1 1 1 0 -0 -1 -0 -1 -1 -1 -1 -1 -0 0 1 2 2 2 2 2 2 1 1 1 1 0 -0 -1 -1 -0 -0 1 1 1 -0 -0